Hourly Data Report for October 30, 2015

All times are specified in Local Standard Time (LST). Add 1 hour to adjust for Daylight Saving Time where and when it is observed.

IQALUIT CLIMATE
NUNAVUT

63°44'50.000" N
68°32'40.000" W
33.50 m
2402592
71321
XFB

Download Data

Hourly Data (October 2015)
Hourly Data Report for October 30, 2015
Temp Definition
°C
Dew Point Temp Definition
°C
Rel Hum Definition
%
Wind Dir Definition
10's deg

Wind Spd Definition
km/h
Visibility Definition
km
Stn Press Definition
kPa
Hmdx Definition


Wind Chill Definition


Weather Definition


TIME
00:00 -7.8 -12.7 68 7 22   99.59   -15 LegendNANA
01:00 -7.6 -10.8 77 7 17   99.53   -14 LegendNANA
02:00 -7.1 -9.4 83 8 19   99.45   -14 LegendNANA
03:00 -6.5 -8.9 83 8 28   99.40   -15 LegendNANA
04:00 -6.1 -8.8 81 8 31   99.32   -15 LegendNANA
05:00 -5.6 -8.1 82 7 35   99.29   -14 LegendNANA
06:00 -5.1 -8.6 76 7 31   99.27   -13 LegendNANA
07:00 -4.8 -8.2 77 8 22   99.30   -12 LegendNANA
08:00 -5.0 -7.5 82 7 13   99.31   -10 LegendNANA
09:00 -4.5 -6.6 85 8 13   99.31   -10 LegendNANA
10:00 -3.8 -6.9 79 8 15   99.30   -9 LegendNANA
11:00 -3.2 -7.2 74 8 13   99.28   -8 LegendNANA
12:00 -3.3 -7.4 74 8 15   99.29   -8 LegendNANA
13:00 -3.0 -8.1 68 7 15   99.33   -8 LegendNANA
14:00 -3.5 -8.1 70 6 15   99.38   -9 LegendNANA
15:00 -3.7 -8.8 68 6 14   99.42   -9 LegendNANA
16:00 -4.1 -9.0 69 7 19   99.47   -10 LegendNANA
17:00 -4.2 -9.4 67 6 20   99.54   -11 LegendNANA
18:00 -4.8 -8.5 75 5 24   99.59   -12 LegendNANA
19:00 -5.1 -7.6 83 4 24   99.64   -12 LegendNANA
20:00 -5.1 -8.4 78 3 29   99.70   -13 LegendNANA
21:00 -5.3 -8.9 76 2 16   99.75   -11 LegendNANA
22:00 -5.7 -8.9 78 1 19   99.76   -12 LegendNANA
23:00 -5.8 -9.5 75 2 19   99.80   -12 LegendNANA

Notes on Data Quality.

Legend

  • E = Estimated
  • M = Missing
  • NA = Not Available
  • ‡ = Partner data that is not subject to review by the National Climate Archives
Date modified: